owner,sensor,date,latitude,longitude,vertical_datum,wind_speed,wind_to_direction,wind_speed_of_gust,qcFlag 
DISL,ioos:station:DISL:PPTA:1,2017-01-01T00:00:00Z,30.2791,-87.5561,0.0,3.5,148.0,99.0,'11111222,11111222,11144222' 
DISL,ioos:station:DISL:PPTA:1,2017-01-01T00:30:00Z,30.2791,-87.5561,0.0,3.2,140.0,99.0,'11111222,11111222,11144222' 
DISL,ioos:station:DISL:PPTA:1,2017-01-01T01:00:00Z,30.2791,-87.5561,0.0,3.7,135.0,99.0,'11111222,11111222,11144222' 
DISL,ioos:station:DISL:PPTA:1,2017-01-01T01:30:00Z,30.2791,-87.5561,0.0,4.6,145.0,99.0,'11111222,11111222,11144222' 
DISL,ioos:station:DISL:PPTA:1,2017-01-01T02:00:00Z,30.2791,-87.5561,0.0,5.5,143.0,99.0,'11111222,11111222,11144222' 
DISL,ioos:station:DISL:PPTA:1,2017-01-01T02:30:00Z,30.2791,-87.5561,0.0,6.6,149.0,99.0,'11111222,11111222,11144222' 
DISL,ioos:station:DISL:PPTA:1,2017-01-01T03:00:00Z,30.2791,-87.5561,0.0,7.4,150.0,99.0,'11111222,11111222,11144222' 
DISL,ioos:station:DISL:PPTA:1,2017-01-01T03:30:00Z,30.2791,-87.5561,0.0,7.3,147.0,99.0,'11111222,11111222,11144222' 
DISL,ioos:station:DISL:PPTA:1,2017-01-01T04:00:00Z,30.2791,-87.5561,0.0,7.2,142.0,99.0,'11111222,11111222,11144222' 
DISL,ioos:station:DISL:PPTA:1,2017-01-01T04:30:00Z,30.2791,-87.5561,0.0,6.4,143.0,99.0,'11111222,11111222,11144222' 
DISL,ioos:station:DISL:PPTA:1,2017-01-01T05:00:00Z,30.2791,-87.5561,0.0,7.1,160.0,99.0,'11111222,11111222,11144222' 
DISL,ioos:station:DISL:PPTA:1,2017-01-01T05:30:00Z,30.2791,-87.5561,0.0,3.9,172.0,99.0,'11111222,11111222,11144222' 
DISL,ioos:station:DISL:PPTA:1,2017-01-01T06:00:00Z,30.2791,-87.5561,0.0,5.6,169.0,99.0,'11111222,11111222,11144222' 
DISL,ioos:station:DISL:PPTA:1,2017-01-01T06:30:00Z,30.2791,-87.5561,0.0,6.26,173.7,-999.0,'1111122,1111122,1111122' 
DISL,ioos:station:DISL:PPTA:1,2017-01-01T07:00:00Z,30.2791,-87.5561,0.0,3.81,181.0,-999.0,'1111122,1111122,1111122' 
DISL,ioos:station:DISL:PPTA:1,2017-01-01T07:30:00Z,30.2791,-87.5561,0.0,3.78,180.5,-999.0,'1111122,1111122,1111122' 
DISL,ioos:station:DISL:PPTA:1,2017-01-01T08:00:00Z,30.2791,-87.5561,0.0,2.99,183.8,-999.0,'1111122,1111122,1111122' 
DISL,ioos:station:DISL:PPTA:1,2017-01-01T08:30:00Z,30.2791,-87.5561,0.0,4.01,174.6,-999.0,'1111122,1111122,1111122' 
DISL,ioos:station:DISL:PPTA:1,2017-01-01T09:00:00Z,30.2791,-87.5561,0.0,4.09,162.6,-999.0,'1111122,1111122,1111122' 
DISL,ioos:station:DISL:PPTA:1,2017-01-01T09:30:00Z,30.2791,-87.5561,0.0,2.77,180.4,-999.0,'1111122,1111122,1111122' 
DISL,ioos:station:DISL:PPTA:1,2017-01-01T10:00:00Z,30.2791,-87.5561,0.0,4.76,179.8,-999.0,'1111122,1111122,1111122' 
DISL,ioos:station:DISL:PPTA:1,2017-01-01T10:30:00Z,30.2791,-87.5561,0.0,2.65,248.6,-999.0,'1111122,1111122,1111122' 
DISL,ioos:station:DISL:PPTA:1,2017-01-01T11:00:00Z,30.2791,-87.5561,0.0,0.94,211.0,-999.0,'1111122,1111122,1111122' 
DISL,ioos:station:DISL:PPTA:1,2017-01-01T11:30:00Z,30.2791,-87.5561,0.0,3.17,236.0,-999.0,'1111122,1111122,1111122' 
DISL,ioos:station:DISL:PPTA:1,2017-01-01T12:00:00Z,30.2791,-87.5561,0.0,4.27,267.7,-999.0,'1111122,1111122,1111122' 
DISL,ioos:station:DISL:PPTA:1,2017-01-01T12:30:00Z,30.2791,-87.5561,0.0,3.47,264.1,-999.0,'1111122,1111122,1111122' 
DISL,ioos:station:DISL:PPTA:1,2017-01-01T13:00:00Z,30.2791,-87.5561,0.0,2.52,264.9,-999.0,'1111122,1111122,1111122' 
DISL,ioos:station:DISL:PPTA:1,2017-01-01T13:30:00Z,30.2791,-87.5561,0.0,1.68,309.0,-999.0,'1111122,1111122,1111122' 
DISL,ioos:station:DISL:PPTA:1,2017-01-01T14:00:00Z,30.2791,-87.5561,0.0,1.2,87.5,-999.0,'1111122,1111122,1111122' 
DISL,ioos:station:DISL:PPTA:1,2017-01-01T14:30:00Z,30.2791,-87.5561,0.0,0.42,245.5,-999.0,'1111122,1111122,1111122' 
DISL,ioos:station:DISL:PPTA:1,2017-01-01T15:00:00Z,30.2791,-87.5561,0.0,0.57,5.778,-999.0,'1111122,1111122,1111122' 
DISL,ioos:station:DISL:PPTA:1,2017-01-01T15:30:00Z,30.2791,-87.5561,0.0,1.99,129.6,-999.0,'1111122,1111122,1111122' 
DISL,ioos:station:DISL:PPTA:1,2017-01-01T16:00:00Z,30.2791,-87.5561,0.0,1.54,127.9,-999.0,'1111122,1111122,1111122' 
DISL,ioos:station:DISL:PPTA:1,2017-01-01T16:30:00Z,30.2791,-87.5561,0.0,2.36,149.9,-999.0,'1111122,1111122,1111122' 
DISL,ioos:station:DISL:PPTA:1,2017-01-01T17:00:00Z,30.2791,-87.5561,0.0,3.14,168.2,-999.0,'1111122,1111122,1111122' 
DISL,ioos:station:DISL:PPTA:1,2017-01-01T17:30:00Z,30.2791,-87.5561,0.0,2.31,180.6,-999.0,'1111122,1111122,1111122' 
DISL,ioos:station:DISL:PPTA:1,2017-01-01T18:00:00Z,30.2791,-87.5561,0.0,2.51,173.2,-999.0,'1111122,1111122,1111122' 
DISL,ioos:station:DISL:PPTA:1,2017-01-01T18:30:00Z,30.2791,-87.5561,0.0,2.62,173.1,-999.0,'1111122,1111122,1111122' 
DISL,ioos:station:DISL:PPTA:1,2017-01-01T19:00:00Z,30.2791,-87.5561,0.0,2.55,171.6,-999.0,'1111122,1111122,1111122' 
DISL,ioos:station:DISL:PPTA:1,2017-01-01T19:30:00Z,30.2791,-87.5561,0.0,1.99,180.7,-999.0,'1111122,1111122,1111122' 
DISL,ioos:station:DISL:PPTA:1,2017-01-01T20:00:00Z,30.2791,-87.5561,0.0,2.3,181.3,-999.0,'1111122,1111122,1111122' 
DISL,ioos:station:DISL:PPTA:1,2017-01-01T20:30:00Z,30.2791,-87.5561,0.0,2.14,182.4,-999.0,'1111122,1111122,1111122' 
DISL,ioos:station:DISL:PPTA:1,2017-01-01T21:00:00Z,30.2791,-87.5561,0.0,2.4,187.7,-999.0,'1111122,1111122,1111122' 
DISL,ioos:station:DISL:PPTA:1,2017-01-01T21:30:00Z,30.2791,-87.5561,0.0,2.32,184.1,-999.0,'1111122,1111122,1111122' 
DISL,ioos:station:DISL:PPTA:1,2017-01-01T22:00:00Z,30.2791,-87.5561,0.0,4.2,180.8,-999.0,'1111122,1111122,1111122' 
DISL,ioos:station:DISL:PPTA:1,2017-01-01T22:30:00Z,30.2791,-87.5561,0.0,3.1,179.1,-999.0,'1111122,1111122,1111122' 
DISL,ioos:station:DISL:PPTA:1,2017-01-01T23:00:00Z,30.2791,-87.5561,0.0,1.91,181.1,-999.0,'1111122,1111122,1111122' 
DISL,ioos:station:DISL:PPTA:1,2017-01-01T23:30:00Z,30.2791,-87.5561,0.0,1.35,185.7,-999.0,'1111122,1111122,1111122' 
DISL,ioos:station:DISL:PPTA:1,2017-01-02T00:00:00Z,30.2791,-87.5561,0.0,1.17,182.4,-999.0,'1111122,1111122,1111122' 
DISL,ioos:station:DISL:PPTA:1,2017-01-02T00:30:00Z,30.2791,-87.5561,0.0,1.17,185.0,-999.0,'1111122,1111122,1111122' 
DISL,ioos:station:DISL:PPTA:1,2017-01-02T01:00:00Z,30.2791,-87.5561,0.0,2.45,170.0,-999.0,'1111122,1111122,1111122' 
DISL,ioos:station:DISL:PPTA:1,2017-01-02T01:30:00Z,30.2791,-87.5561,0.0,3.23,170.4,-999.0,'1111122,1111122,1111122' 
DISL,ioos:station:DISL:PPTA:1,2017-01-02T02:00:00Z,30.2791,-87.5561,0.0,1.58,183.5,-999.0,'1111122,1111122,1111122' 
DISL,ioos:station:DISL:PPTA:1,2017-01-02T02:30:00Z,30.2791,-87.5561,0.0,2.62,174.7,-999.0,'1111122,1111122,1111122' 
DISL,ioos:station:DISL:PPTA:1,2017-01-02T03:00:00Z,30.2791,-87.5561,0.0,1.41,186.1,-999.0,'1111122,1111122,1111122' 
DISL,ioos:station:DISL:PPTA:1,2017-01-02T03:30:00Z,30.2791,-87.5561,0.0,1.0,188.3,-999.0,'1111122,1111122,1111122' 
DISL,ioos:station:DISL:PPTA:1,2017-01-02T04:00:00Z,30.2791,-87.5561,0.0,2.17,239.8,-999.0,'1111122,1111122,1111122' 
DISL,ioos:station:DISL:PPTA:1,2017-01-02T04:30:00Z,30.2791,-87.5561,0.0,3.97,308.0,-999.0,'1111122,1111122,1111122' 
DISL,ioos:station:DISL:PPTA:1,2017-01-02T05:00:00Z,30.2791,-87.5561,0.0,2.44,83.5,-999.0,'1111122,1111122,1111122' 
DISL,ioos:station:DISL:PPTA:1,2017-01-02T05:30:00Z,30.2791,-87.5561,0.0,2.87,113.6,-999.0,'1111122,1111122,1111122' 
DISL,ioos:station:DISL:PPTA:1,2017-01-02T06:00:00Z,30.2791,-87.5561,0.0,3.03,44.36,-999.0,'1111122,1111122,1111122' 
DISL,ioos:station:DISL:PPTA:1,2017-01-02T06:30:00Z,30.2791,-87.5561,0.0,4.09,34.46,-999.0,'1111122,1111122,1111122' 
DISL,ioos:station:DISL:PPTA:1,2017-01-02T07:00:00Z,30.2791,-87.5561,0.0,3.23,61.63,-999.0,'1111122,1111122,1111122' 
DISL,ioos:station:DISL:PPTA:1,2017-01-02T07:30:00Z,30.2791,-87.5561,0.0,3.32,67.61,-999.0,'1111122,1111122,1111122' 
DISL,ioos:station:DISL:PPTA:1,2017-01-02T08:00:00Z,30.2791,-87.5561,0.0,1.59,52.1,-999.0,'1111122,1111122,1111122' 
DISL,ioos:station:DISL:PPTA:1,2017-01-02T08:30:00Z,30.2791,-87.5561,0.0,1.53,29.3,-999.0,'1111122,1111122,1111122' 
DISL,ioos:station:DISL:PPTA:1,2017-01-02T09:00:00Z,30.2791,-87.5561,0.0,2.1,69.97,-999.0,'1111122,1111122,1111122' 
DISL,ioos:station:DISL:PPTA:1,2017-01-02T09:30:00Z,30.2791,-87.5561,0.0,3.24,81.2,-999.0,'1111122,1111122,1111122' 
DISL,ioos:station:DISL:PPTA:1,2017-01-02T10:00:00Z,30.2791,-87.5561,0.0,1.98,52.41,-999.0,'1111122,1111122,1111122' 
DISL,ioos:station:DISL:PPTA:1,2017-01-02T10:30:00Z,30.2791,-87.5561,0.0,2.38,66.55,-999.0,'1111122,1111122,1111122' 
DISL,ioos:station:DISL:PPTA:1,2017-01-02T11:00:00Z,30.2791,-87.5561,0.0,3.33,98.6,-999.0,'1111122,1111122,1111122' 
DISL,ioos:station:DISL:PPTA:1,2017-01-02T11:30:00Z,30.2791,-87.5561,0.0,2.89,107.3,-999.0,'1111122,1111122,1111122' 
DISL,ioos:station:DISL:PPTA:1,2017-01-02T12:00:00Z,30.2791,-87.5561,0.0,2.83,125.3,-999.0,'1111122,1111122,1111122' 
DISL,ioos:station:DISL:PPTA:1,2017-01-02T12:30:00Z,30.2791,-87.5561,0.0,3.06,122.6,-999.0,'1111122,1111122,1111122' 
DISL,ioos:station:DISL:PPTA:1,2017-01-02T13:00:00Z,30.2791,-87.5561,0.0,3.11,141.8,-999.0,'1111122,1111122,1111122' 
DISL,ioos:station:DISL:PPTA:1,2017-01-02T13:30:00Z,30.2791,-87.5561,0.0,3.63,137.0,-999.0,'1111122,1111122,1111122' 
DISL,ioos:station:DISL:PPTA:1,2017-01-02T14:00:00Z,30.2791,-87.5561,0.0,2.84,142.6,-999.0,'1111122,1111122,1111122' 
DISL,ioos:station:DISL:PPTA:1,2017-01-02T14:30:00Z,30.2791,-87.5561,0.0,2.19,136.6,-999.0,'1111122,1111122,1111122' 
DISL,ioos:station:DISL:PPTA:1,2017-01-02T15:00:00Z,30.2791,-87.5561,0.0,1.66,153.2,-999.0,'1111122,1111122,1111122' 
DISL,ioos:station:DISL:PPTA:1,2017-01-02T15:30:00Z,30.2791,-87.5561,0.0,2.92,137.2,-999.0,'1111122,1111122,1111122' 
DISL,ioos:station:DISL:PPTA:1,2017-01-02T16:00:00Z,30.2791,-87.5561,0.0,3.72,140.0,-999.0,'1111122,1111122,1111122' 
DISL,ioos:station:DISL:PPTA:1,2017-01-02T16:30:00Z,30.2791,-87.5561,0.0,5.94,138.3,-999.0,'1111122,1111122,1111122' 
DISL,ioos:station:DISL:PPTA:1,2017-01-02T17:00:00Z,30.2791,-87.5561,0.0,5.02,141.1,-999.0,'1111122,1111122,1111122' 
DISL,ioos:station:DISL:PPTA:1,2017-01-02T17:30:00Z,30.2791,-87.5561,0.0,5.79,147.4,-999.0,'1111122,1111122,1111122' 
DISL,ioos:station:DISL:PPTA:1,2017-01-02T18:00:00Z,30.2791,-87.5561,0.0,5.85,152.4,-999.0,'1111122,1111122,1111122' 
DISL,ioos:station:DISL:PPTA:1,2017-01-02T18:30:00Z,30.2791,-87.5561,0.0,4.28,166.8,-999.0,'1111122,1111122,1111122' 
DISL,ioos:station:DISL:PPTA:1,2017-01-02T19:00:00Z,30.2791,-87.5561,0.0,6.23,149.8,-999.0,'1111122,1111122,1111122' 
DISL,ioos:station:DISL:PPTA:1,2017-01-02T19:30:00Z,30.2791,-87.5561,0.0,4.03,167.9,-999.0,'1111122,1111122,1111122' 
DISL,ioos:station:DISL:PPTA:1,2017-01-02T20:00:00Z,30.2791,-87.5561,0.0,6.5,171.9,-999.0,'1111122,1111122,1111122' 
DISL,ioos:station:DISL:PPTA:1,2017-01-02T20:30:00Z,30.2791,-87.5561,0.0,5.96,164.0,-999.0,'1111122,1111122,1111122' 
DISL,ioos:station:DISL:PPTA:1,2017-01-02T21:00:00Z,30.2791,-87.5561,0.0,8.41,199.1,-999.0,'1111122,1111122,1111122' 
DISL,ioos:station:DISL:PPTA:1,2017-01-02T21:30:00Z,30.2791,-87.5561,0.0,3.17,250.0,-999.0,'1111122,1111122,1111122' 
DISL,ioos:station:DISL:PPTA:1,2017-01-02T22:00:00Z,30.2791,-87.5561,0.0,1.61,141.7,-999.0,'1111122,1111122,1111122' 
DISL,ioos:station:DISL:PPTA:1,2017-01-02T22:30:00Z,30.2791,-87.5561,0.0,0.42,249.0,-999.0,'1111122,1111122,1111122' 
DISL,ioos:station:DISL:PPTA:1,2017-01-02T23:00:00Z,30.2791,-87.5561,0.0,3.1,164.4,-999.0,'1111122,1111122,1111122' 
DISL,ioos:station:DISL:PPTA:1,2017-01-02T23:30:00Z,30.2791,-87.5561,0.0,4.3,172.0,-999.0,'1111122,1111122,1111122' 
DISL,ioos:station:DISL:PPTA:1,2017-01-03T00:00:00Z,30.2791,-87.5561,0.0,5.37,239.9,-999.0,'1111122,1111122,1111122' 
DISL,ioos:station:DISL:PPTA:1,2017-01-03T00:30:00Z,30.2791,-87.5561,0.0,4.34,283.7,-999.0,'1111122,1111122,1111122' 
DISL,ioos:station:DISL:PPTA:1,2017-01-03T01:00:00Z,30.2791,-87.5561,0.0,6.49,310.4,-999.0,'1111122,1111122,1111122' 
DISL,ioos:station:DISL:PPTA:1,2017-01-03T01:30:00Z,30.2791,-87.5561,0.0,1.96,358.9,-999.0,'1111122,1111122,1111122' 
DISL,ioos:station:DISL:PPTA:1,2017-01-03T02:00:00Z,30.2791,-87.5561,0.0,2.76,62.51,-999.0,'1111122,1111122,1111122' 
DISL,ioos:station:DISL:PPTA:1,2017-01-03T02:30:00Z,30.2791,-87.5561,0.0,2.14,273.9,-999.0,'1111122,1111122,1111122' 
DISL,ioos:station:DISL:PPTA:1,2017-01-03T03:00:00Z,30.2791,-87.5561,0.0,1.62,254.8,-999.0,'1111122,1111122,1111122' 
DISL,ioos:station:DISL:PPTA:1,2017-01-03T03:30:00Z,30.2791,-87.5561,0.0,2.38,216.1,-999.0,'1111122,1111122,1111122' 
DISL,ioos:station:DISL:PPTA:1,2017-01-03T04:00:00Z,30.2791,-87.5561,0.0,2.43,209.8,-999.0,'1111122,1111122,1111122' 
DISL,ioos:station:DISL:PPTA:1,2017-01-03T04:30:00Z,30.2791,-87.5561,0.0,1.37,224.8,-999.0,'1111122,1111122,1111122' 
DISL,ioos:station:DISL:PPTA:1,2017-01-03T05:00:00Z,30.2791,-87.5561,0.0,2.43,209.3,-999.0,'1111122,1111122,1111122' 
DISL,ioos:station:DISL:PPTA:1,2017-01-03T05:30:00Z,30.2791,-87.5561,0.0,2.67,201.0,-999.0,'1111122,1111122,1111122' 
DISL,ioos:station:DISL:PPTA:1,2017-01-03T06:00:00Z,30.2791,-87.5561,0.0,2.43,196.1,-999.0,'1111122,1111122,1111122' 
DISL,ioos:station:DISL:PPTA:1,2017-01-03T06:30:00Z,30.2791,-87.5561,0.0,3.23,223.5,-999.0,'1111122,1111122,1111122' 
DISL,ioos:station:DISL:PPTA:1,2017-01-03T07:00:00Z,30.2791,-87.5561,0.0,1.94,221.8,-999.0,'1111122,1111122,1111122' 
DISL,ioos:station:DISL:PPTA:1,2017-01-03T07:30:00Z,30.2791,-87.5561,0.0,1.97,227.9,-999.0,'1111122,1111122,1111122' 
DISL,ioos:station:DISL:PPTA:1,2017-01-03T08:00:00Z,30.2791,-87.5561,0.0,6.74,263.4,-999.0,'1111122,1111122,1111122' 
DISL,ioos:station:DISL:PPTA:1,2017-01-03T08:30:00Z,30.2791,-87.5561,0.0,6.2,264.4,-999.0,'1111122,1111122,1111122' 
DISL,ioos:station:DISL:PPTA:1,2017-01-03T09:00:00Z,30.2791,-87.5561,0.0,5.23,277.0,-999.0,'1111122,1111122,1111122' 
DISL,ioos:station:DISL:PPTA:1,2017-01-03T09:30:00Z,30.2791,-87.5561,0.0,4.07,296.3,-999.0,'1111122,1111122,1111122' 
DISL,ioos:station:DISL:PPTA:1,2017-01-03T10:00:00Z,30.2791,-87.5561,0.0,5.01,303.8,-999.0,'1111122,1111122,1111122' 
DISL,ioos:station:DISL:PPTA:1,2017-01-03T10:30:00Z,30.2791,-87.5561,0.0,2.98,299.6,-999.0,'1111122,1111122,1111122' 
DISL,ioos:station:DISL:PPTA:1,2017-01-03T11:00:00Z,30.2791,-87.5561,0.0,2.97,323.1,-999.0,'1111122,1111122,1111122' 
DISL,ioos:station:DISL:PPTA:1,2017-01-03T11:30:00Z,30.2791,-87.5561,0.0,3.19,326.7,-999.0,'1111122,1111122,1111122' 
DISL,ioos:station:DISL:PPTA:1,2017-01-03T12:00:00Z,30.2791,-87.5561,0.0,2.22,307.6,-999.0,'1111122,1111122,1111122' 
DISL,ioos:station:DISL:PPTA:1,2017-01-03T12:30:00Z,30.2791,-87.5561,0.0,2.15,294.1,-999.0,'1111122,1111122,1111122' 
DISL,ioos:station:DISL:PPTA:1,2017-01-03T13:00:00Z,30.2791,-87.5561,0.0,1.99,290.8,-999.0,'1111122,1111122,1111122' 
DISL,ioos:station:DISL:PPTA:1,2017-01-03T13:30:00Z,30.2791,-87.5561,0.0,1.12,289.4,-999.0,'1111122,1111122,1111122' 
DISL,ioos:station:DISL:PPTA:1,2017-01-03T14:00:00Z,30.2791,-87.5561,0.0,2.06,308.7,-999.0,'1111122,1111122,1111122' 
DISL,ioos:station:DISL:PPTA:1,2017-01-03T14:30:00Z,30.2791,-87.5561,0.0,1.05,282.7,-999.0,'1111122,1111122,1111122' 
DISL,ioos:station:DISL:PPTA:1,2017-01-03T15:00:00Z,30.2791,-87.5561,0.0,0.94,301.0,-999.0,'1111122,1111122,1111122' 
DISL,ioos:station:DISL:PPTA:1,2017-01-03T15:30:00Z,30.2791,-87.5561,0.0,0.2,272.9,-999.0,'1111122,1111122,1111122' 
DISL,ioos:station:DISL:PPTA:1,2017-01-03T16:00:00Z,30.2791,-87.5561,0.0,1.41,177.8,-999.0,'1111122,1111122,1111122' 
DISL,ioos:station:DISL:PPTA:1,2017-01-03T16:30:00Z,30.2791,-87.5561,0.0,1.53,175.1,-999.0,'1111122,1111122,1111122' 
DISL,ioos:station:DISL:PPTA:1,2017-01-03T17:00:00Z,30.2791,-87.5561,0.0,2.6,181.5,-999.0,'1111122,1111122,1111122' 
DISL,ioos:station:DISL:PPTA:1,2017-01-03T17:30:00Z,30.2791,-87.5561,0.0,2.59,181.3,-999.0,'1111122,1111122,1111122' 
DISL,ioos:station:DISL:PPTA:1,2017-01-03T18:00:00Z,30.2791,-87.5561,0.0,1.72,194.2,-999.0,'1111122,1111122,1111122' 
DISL,ioos:station:DISL:PPTA:1,2017-01-03T18:30:00Z,30.2791,-87.5561,0.0,3.7,181.3,-999.0,'1111122,1111122,1111122' 
DISL,ioos:station:DISL:PPTA:1,2017-01-03T19:00:00Z,30.2791,-87.5561,0.0,1.39,198.1,-999.0,'1111122,1111122,1111122' 
DISL,ioos:station:DISL:PPTA:1,2017-01-03T19:30:00Z,30.2791,-87.5561,0.0,2.19,222.6,-999.0,'1111122,1111122,1111122' 
DISL,ioos:station:DISL:PPTA:1,2017-01-03T20:00:00Z,30.2791,-87.5561,0.0,2.18,231.3,-999.0,'1111122,1111122,1111122' 
DISL,ioos:station:DISL:PPTA:1,2017-01-03T20:30:00Z,30.2791,-87.5561,0.0,2.22,231.5,-999.0,'1111122,1111122,1111122' 
DISL,ioos:station:DISL:PPTA:1,2017-01-03T21:00:00Z,30.2791,-87.5561,0.0,2.43,232.3,-999.0,'1111122,1111122,1111122' 
DISL,ioos:station:DISL:PPTA:1,2017-01-03T21:30:00Z,30.2791,-87.5561,0.0,3.51,238.8,-999.0,'1111122,1111122,1111122' 
DISL,ioos:station:DISL:PPTA:1,2017-01-03T22:00:00Z,30.2791,-87.5561,0.0,2.57,236.8,-999.0,'1111122,1111122,1111122' 
DISL,ioos:station:DISL:PPTA:1,2017-01-03T22:30:00Z,30.2791,-87.5561,0.0,2.32,238.6,-999.0,'1111122,1111122,1111122' 
DISL,ioos:station:DISL:PPTA:1,2017-01-03T23:00:00Z,30.2791,-87.5561,0.0,1.9,235.8,-999.0,'1111122,1111122,1111122' 
DISL,ioos:station:DISL:PPTA:1,2017-01-03T23:30:00Z,30.2791,-87.5561,0.0,2.64,246.5,-999.0,'1111122,1111122,1111122' 
DISL,ioos:station:DISL:PPTA:1,2017-01-04T00:00:00Z,30.2791,-87.5561,0.0,2.13,233.5,-999.0,'1111122,1111122,1111122' 
DISL,ioos:station:DISL:PPTA:1,2017-01-04T00:30:00Z,30.2791,-87.5561,0.0,2.13,247.4,-999.0,'1111122,1111122,1111122' 
DISL,ioos:station:DISL:PPTA:1,2017-01-04T01:00:00Z,30.2791,-87.5561,0.0,2.51,248.5,-999.0,'1111122,1111122,1111122' 
DISL,ioos:station:DISL:PPTA:1,2017-01-04T01:30:00Z,30.2791,-87.5561,0.0,1.81,252.2,-999.0,'1111122,1111122,1111122' 
DISL,ioos:station:DISL:PPTA:1,2017-01-04T02:00:00Z,30.2791,-87.5561,0.0,1.77,249.6,-999.0,'1111122,1111122,1111122' 
DISL,ioos:station:DISL:PPTA:1,2017-01-04T02:30:00Z,30.2791,-87.5561,0.0,2.64,256.4,-999.0,'1111122,1111122,1111122' 
DISL,ioos:station:DISL:PPTA:1,2017-01-04T03:00:00Z,30.2791,-87.5561,0.0,2.32,263.9,-999.0,'1111122,1111122,1111122' 
DISL,ioos:station:DISL:PPTA:1,2017-01-04T03:30:00Z,30.2791,-87.5561,0.0,1.03,256.9,-999.0,'1111122,1111122,1111122' 
DISL,ioos:station:DISL:PPTA:1,2017-01-04T04:00:00Z,30.2791,-87.5561,0.0,1.54,255.6,-999.0,'1111122,1111122,1111122' 
DISL,ioos:station:DISL:PPTA:1,2017-01-04T04:30:00Z,30.2791,-87.5561,0.0,0.73,287.6,-999.0,'1111122,1111122,1111122' 
DISL,ioos:station:DISL:PPTA:1,2017-01-04T05:00:00Z,30.2791,-87.5561,0.0,1.11,280.8,-999.0,'1111122,1111122,1111122' 
DISL,ioos:station:DISL:PPTA:1,2017-01-04T05:30:00Z,30.2791,-87.5561,0.0,1.37,274.8,-999.0,'1111122,1111122,1111122' 
DISL,ioos:station:DISL:PPTA:1,2017-01-04T06:00:00Z,30.2791,-87.5561,0.0,1.18,276.2,-999.0,'1111122,1111122,1111122' 
DISL,ioos:station:DISL:PPTA:1,2017-01-04T06:30:00Z,30.2791,-87.5561,0.0,0.86,277.0,-999.0,'1111122,1111122,1111122' 
DISL,ioos:station:DISL:PPTA:1,2017-01-04T07:00:00Z,30.2791,-87.5561,0.0,1.01,276.0,-999.0,'1111122,1111122,1111122' 
DISL,ioos:station:DISL:PPTA:1,2017-01-04T07:30:00Z,30.2791,-87.5561,0.0,1.03,267.2,-999.0,'1111122,1111122,1111122' 
DISL,ioos:station:DISL:PPTA:1,2017-01-04T08:00:00Z,30.2791,-87.5561,0.0,1.07,270.7,-999.0,'1111122,1111122,1111122' 
DISL,ioos:station:DISL:PPTA:1,2017-01-04T08:30:00Z,30.2791,-87.5561,0.0,1.83,251.4,-999.0,'1111122,1111122,1111122' 
DISL,ioos:station:DISL:PPTA:1,2017-01-04T09:00:00Z,30.2791,-87.5561,0.0,1.41,254.9,-999.0,'1111122,1111122,1111122' 
DISL,ioos:station:DISL:PPTA:1,2017-01-04T09:30:00Z,30.2791,-87.5561,0.0,1.32,248.9,-999.0,'1111122,1111122,1111122' 
DISL,ioos:station:DISL:PPTA:1,2017-01-04T10:00:00Z,30.2791,-87.5561,0.0,1.52,251.2,-999.0,'1111122,1111122,1111122' 
DISL,ioos:station:DISL:PPTA:1,2017-01-04T10:30:00Z,30.2791,-87.5561,0.0,1.53,270.2,-999.0,'1111122,1111122,1111122' 
DISL,ioos:station:DISL:PPTA:1,2017-01-04T11:00:00Z,30.2791,-87.5561,0.0,2.93,301.2,-999.0,'1111122,1111122,1111122' 
DISL,ioos:station:DISL:PPTA:1,2017-01-04T11:30:00Z,30.2791,-87.5561,0.0,3.64,335.2,-999.0,'1111122,1111122,1111122' 
DISL,ioos:station:DISL:PPTA:1,2017-01-04T12:00:00Z,30.2791,-87.5561,0.0,4.45,337.4,-999.0,'1111122,1111122,1111122' 
DISL,ioos:station:DISL:PPTA:1,2017-01-04T12:30:00Z,30.2791,-87.5561,0.0,6.58,345.3,-999.0,'1111122,1111122,1111122' 
DISL,ioos:station:DISL:PPTA:1,2017-01-04T13:00:00Z,30.2791,-87.5561,0.0,5.54,359.6,-999.0,'1111122,1111122,1111122' 
DISL,ioos:station:DISL:PPTA:1,2017-01-04T13:30:00Z,30.2791,-87.5561,0.0,6.0,13.59,-999.0,'1111122,1111122,1111122' 
DISL,ioos:station:DISL:PPTA:1,2017-01-04T14:00:00Z,30.2791,-87.5561,0.0,4.05,5.627,-999.0,'1111122,1111122,1111122' 
DISL,ioos:station:DISL:PPTA:1,2017-01-04T14:30:00Z,30.2791,-87.5561,0.0,5.04,343.5,-999.0,'1111122,1111122,1111122' 
DISL,ioos:station:DISL:PPTA:1,2017-01-04T15:00:00Z,30.2791,-87.5561,0.0,5.21,357.0,-999.0,'1111122,1111122,1111122' 
DISL,ioos:station:DISL:PPTA:1,2017-01-04T15:30:00Z,30.2791,-87.5561,0.0,4.54,11.96,-999.0,'1111122,1111122,1111122' 
DISL,ioos:station:DISL:PPTA:1,2017-01-04T16:00:00Z,30.2791,-87.5561,0.0,5.73,354.4,-999.0,'1111122,1111122,1111122' 
DISL,ioos:station:DISL:PPTA:1,2017-01-04T16:30:00Z,30.2791,-87.5561,0.0,5.74,341.5,-999.0,'1111122,1111122,1111122' 
DISL,ioos:station:DISL:PPTA:1,2017-01-04T17:00:00Z,30.2791,-87.5561,0.0,5.01,353.0,-999.0,'1111122,1111122,1111122' 
DISL,ioos:station:DISL:PPTA:1,2017-01-04T17:30:00Z,30.2791,-87.5561,0.0,5.11,9.32,-999.0,'1111122,1111122,1111122' 
DISL,ioos:station:DISL:PPTA:1,2017-01-04T18:00:00Z,30.2791,-87.5561,0.0,4.78,10.29,-999.0,'1111122,1111122,1111122' 
DISL,ioos:station:DISL:PPTA:1,2017-01-04T18:30:00Z,30.2791,-87.5561,0.0,6.62,11.38,-999.0,'1111122,1111122,1111122' 
DISL,ioos:station:DISL:PPTA:1,2017-01-04T19:00:00Z,30.2791,-87.5561,0.0,5.65,8.39,-999.0,'1111122,1111122,1111122' 
DISL,ioos:station:DISL:PPTA:1,2017-01-04T19:30:00Z,30.2791,-87.5561,0.0,4.36,349.6,-999.0,'1111122,1111122,1111122' 
DISL,ioos:station:DISL:PPTA:1,2017-01-04T20:00:00Z,30.2791,-87.5561,0.0,3.75,347.2,-999.0,'1111122,1111122,1111122' 
DISL,ioos:station:DISL:PPTA:1,2017-01-04T20:30:00Z,30.2791,-87.5561,0.0,4.85,323.4,-999.0,'1111122,1111122,1111122' 
DISL,ioos:station:DISL:PPTA:1,2017-01-04T21:00:00Z,30.2791,-87.5561,0.0,4.73,327.5,-999.0,'1111122,1111122,1111122' 
DISL,ioos:station:DISL:PPTA:1,2017-01-04T21:30:00Z,30.2791,-87.5561,0.0,4.62,344.5,-999.0,'1111122,1111122,1111122' 
DISL,ioos:station:DISL:PPTA:1,2017-01-04T22:00:00Z,30.2791,-87.5561,0.0,4.59,339.7,-999.0,'1111122,1111122,1111122' 
DISL,ioos:station:DISL:PPTA:1,2017-01-04T22:30:00Z,30.2791,-87.5561,0.0,5.15,349.8,-999.0,'1111122,1111122,1111122' 
DISL,ioos:station:DISL:PPTA:1,2017-01-04T23:00:00Z,30.2791,-87.5561,0.0,6.37,8.99,-999.0,'1111122,1111122,1111122' 
DISL,ioos:station:DISL:PPTA:1,2017-01-04T23:30:00Z,30.2791,-87.5561,0.0,6.59,20.11,-999.0,'1111122,1111122,1111122' 
DISL,ioos:station:DISL:PPTA:1,2017-01-05T00:00:00Z,30.2791,-87.5561,0.0,6.81,15.22,-999.0,'1111122,1111122,1111122' 
DISL,ioos:station:DISL:PPTA:1,2017-01-05T00:30:00Z,30.2791,-87.5561,0.0,4.88,353.5,-999.0,'1111122,1111122,1111122' 
DISL,ioos:station:DISL:PPTA:1,2017-01-05T01:00:00Z,30.2791,-87.5561,0.0,4.72,348.0,-999.0,'1111122,1111122,1111122' 
DISL,ioos:station:DISL:PPTA:1,2017-01-05T01:30:00Z,30.2791,-87.5561,0.0,4.94,351.4,-999.0,'1111122,1111122,1111122' 
DISL,ioos:station:DISL:PPTA:1,2017-01-05T02:00:00Z,30.2791,-87.5561,0.0,4.59,343.9,-999.0,'1111122,1111122,1111122' 
DISL,ioos:station:DISL:PPTA:1,2017-01-05T02:30:00Z,30.2791,-87.5561,0.0,4.51,359.4,-999.0,'1111122,1111122,1111122' 
DISL,ioos:station:DISL:PPTA:1,2017-01-05T03:00:00Z,30.2791,-87.5561,0.0,5.65,2.124,-999.0,'1111122,1111122,1111122' 
DISL,ioos:station:DISL:PPTA:1,2017-01-05T03:30:00Z,30.2791,-87.5561,0.0,4.33,8.96,-999.0,'1111122,1111122,1111122' 
DISL,ioos:station:DISL:PPTA:1,2017-01-05T04:00:00Z,30.2791,-87.5561,0.0,3.94,19.02,-999.0,'1111122,1111122,1111122' 
DISL,ioos:station:DISL:PPTA:1,2017-01-05T04:30:00Z,30.2791,-87.5561,0.0,3.48,5.717,-999.0,'1111122,1111122,1111122' 
DISL,ioos:station:DISL:PPTA:1,2017-01-05T05:00:00Z,30.2791,-87.5561,0.0,3.6,24.71,-999.0,'1111122,1111122,1111122' 
DISL,ioos:station:DISL:PPTA:1,2017-01-05T05:30:00Z,30.2791,-87.5561,0.0,3.21,8.26,-999.0,'1111122,1111122,1111122' 